Regional Weather Roundup
Issued by NWS

Home | Current Version | Previous Version | Text Only | Print | Product List | Glossary Off
Versions: 1 2 3 4 5 6 7 8 9 10 11 12 13 14 15 16 17 18 19 20 21 22 23 24 25 26 27 28 29 30 31 32 33 34 35 36 37 38 39 40 41 42 43 44 45 46 47 48 49 50

106
ASUS43 KFSD 281302
RWRSD

WEATHER ROUNDUP FOR SOUTH DAKOTA
NATIONAL WEATHER SERVICE SIOUX FALLS SD
800 AM CDT SUN MAY 28 2017

NOTE: "FAIR" INDICATES FEW OR NO CLOUDS BELOW 12,000 FEET WITH NO
SIGNIFICANT WEATHER AND/OR OBSTRUCTIONS TO VISIBILITY.


SDZ001>005-009-010-012>017-281400-
NORTHWEST AND NORTH CENTRAL SOUTH DAKOTA

CITY           SKY/WX    TMP DP  RH WIND       PRES   REMARKS
BUFFALO          N/A     53  42  66 W14       29.99R
FAITH            N/A     55  44  66 NW14      30.00R
MOBRIDGE       SUNNY     55  43  63 NW7       29.91R
$$

SDZ012>016-024>037-041>051-057-063-072>074-281400-
SOUTHWEST AND SOUTH CENTRAL SOUTH DAKOTA

CITY           SKY/WX    TMP DP  RH WIND       PRES   REMARKS
RAPID CTY ARPT PTSUNNY   57  40  52 NW12      30.07R
PIERRE         SUNNY     58  44  60 NW17      29.93R
CUSTER         CLOUDY    50  34  54 N6        30.16R
ELLSWORTH AFB  PTSUNNY   59  40  49 NW14      30.07R
PHILIP         PTSUNNY   58  45  62 NW13      30.00R
PINE RIDGE     CLOUDY    50  45  83 W5        30.09R
SPEARFISH      FAIR      57  39  51 W13       30.12R
WINNER         FAIR      61  46  57 W14G20    29.95R
$$

SDZ004>011-016>023-039-040-281400-
NORTHEAST SOUTH DAKOTA

CITY           SKY/WX    TMP DP  RH WIND       PRES   REMARKS
ABERDEEN       PTSUNNY   52  44  74 NW9       29.85R
WATERTOWN      SUNNY     56  45  66 N9        29.82S
BROOKINGS      SUNNY     54  47  77 W5        29.85R
SISSETON         N/A     59  46  62 NW12      29.79S
$$

SDZ017-020-022-023-036>040-048>070-281400-
SOUTHEAST SOUTH DAKOTA

CITY           SKY/WX    TMP DP  RH WIND       PRES   REMARKS
SIOUX FALLS    MOSUNNY   58  50  75 W5        29.86R
HURON          SUNNY     54  47  77 NW12      29.87R
CHAMBERLAIN    SUNNY     57  48  72 W8        29.92R
MITCHELL       SUNNY     56  47  71 W8        29.89R
YANKTON        SUNNY     59  49  69 W9        29.89S
$$

ABBREVIATIONS USED IN REMARKS
   TC - TEMPERATURE IN CELSIUS
  WCI - WIND CHILL INDEX
   HX - HEAT INDEX
  VSB - VISIBILITY





USA.gov is the U.S. government's official web portal to all federal, state and local government web resources and services.